星链-2506 (STARLINK-2506 )

导读

STARLINK-2506是美国太空探索技术公司(SpaceX)星链计划中的一颗卫星,于2021年4月29日发射入轨。作为星链星座的组成部分,它旨在为全球提供高速低延迟互联网宽带服务,尤其覆盖偏远地区,推动全球网络互联互通,是SpaceX构建近地轨道卫星星座计划的重要一环。

Basic Information
目录编号:
48315
目录名称:
STARLINK-2506
国际标识:
2021-036AR
轨道中心:
EARTH
卫星名称:
星链-2506
卫星全名:
星链-2506 (STARLINK-2506 )
卫星状态:
在轨 (已飞行1961 天)
发射日期:
2021-04-29 UTC
国别 :
美国 (US)
星等 :
--
This satellite is enrolled in the Space Conjunction Data Service (SCDS) and the current flight risk assessment level is: No High Risk
Orbit Information
数据来源 国际轨道数据
星历时间: 2026-09-11T13:23:25+0800
7小时前
查看轨道信息
半长轴: 6848.831km
偏心率: 0.000115
轨道倾角: 53.160°
近地点辐角 88.144°
升交点赤经 315.503°
平近点角 271.970°
近地点: 469.906km
远地点: 471.482km
周期: 94.012分钟
每日圈数: 15.317155
Detailed Information
固有亮度:
5
最大亮度:
2.5
卫星平台:
Starlink V1.0
覆盖范围:
全球
运营商:
太空探索技术公司
运营商所在国:
美国
制造商(研发单位):
太空探索技术公司
制造商所在国:
美国
使用方式:
暂无
Satellite Introduction
星链(Starlink)计划是由太空探索技术公司(SpaceX)提出的一个巨型低轨卫星互联网星座项目,计划在2019年至2024年间在太空搭建由约1.2万颗卫星组成的“星链”网络,其中1584颗将部署在地球上空550千米处的近地轨道,并从2020年开始工作。该卫星仍在工作。
2D Orbit Map
3D Orbit Map
Orbit Altitude Analysis Chart
Orbit Inclination Analysis Chart
Orbit Comprehensive Analysis Chart
View Comprehensive Chart
Conjunction Data List
Event ID Objects TCA Miss Dist (km) Collision Risk Probability Collision Risk Index (CRI) Action
CDM_260913-133504-831506-882021
2026-09-13T
13:35:34+0000
2.800 km
极远距离
1.448304E-6 低风险 0.38
CDM_260913-040304-831505-306321
2026-09-13T
04:03:04+0000
2.995 km
极远距离
1.266084E-6 低风险 0.37
CDM_260911-112204-831504-844924
2026-09-11T
11:22:38+0000
2.456 km
极远距离
1.240268E-6 低风险 0.37
CDM_260913-025004-831505-323121
2026-09-13T
02:50:11+0000
2.969 km
极远距离
7.998239E-7 极低风险 0.33
Miss Distance Evolution Trend with All Objects
Collision Probability Evolution Trend with All Objects